Regional Weather Roundup
Issued by NWS

Home | Current Version | Previous Version | Graphics & Text | Print | Product List | Glossary On
Versions: 1 2 3 4 5 6 7 8 9 10 11 12 13 14 15 16 17 18 19 20 21 22 23 24 25 26 27 28 29 30 31 32 33 34 35 36 37 38 39 40 41 42 43 44 45 46 47 48 49 50
111
ASUS43 KMKX 240421
RWRWI

WISCONSIN REGIONAL WEATHER ROUNDUP
NATIONAL WEATHER SERVICE MILWAUKEE/SULLIVAN WI
1100 PM CDT THU MAR 23 2017

NOTE: "FAIR" INDICATES FEW OR NO CLOUDS BELOW 12,000 FEET WITH NO
SIGNIFICANT WEATHER AND/OR OBSTRUCTIONS TO VISIBILITY.

WIZ001-002-006>008-014>016-023>028-240500-
NORTHWEST WISCONSIN

CITY           SKY/WX    TMP DP  RH WIND       PRES   REMARKS
SUPERIOR ARPT  CLOUDY    32  32 100 CALM      29.90F FOG
ASHLAND        MIX PCPN  33  32  96 CALM      29.90F FOG
HAYWARD        CLOUDY    34  31  88 CALM      29.89S FOG
SIREN          CLOUDY    34  33  96 CALM      29.89R FOG
CUMBERLAND     DRIZZLE   34  32  93 NE3       29.86F
RICE LAKE      DRIZZLE   36  35  96 CALM      29.89S
CHETEK         DRIZZLE   36  35  96 CALM      29.87F
LADYSMITH      CLOUDY    39  29  67 SE5       29.90S
EAU CLAIRE     CLOUDY    40  34  79 SE3       29.87R
MENOMONIE      DRIZZLE   38  36  89 E3        29.88R
NEW RICHMOND   DRIZZLE   37  36  98 E3        29.86F
OSCEOLA        DRIZZLE   37  37 100 E3        29.89F
$$

WIZ003>005-009-010-017-018-240500-
NORTH CENTRAL WISCONSIN

CITY           SKY/WX    TMP DP  RH WIND       PRES   REMARKS
MANITOWISH WTR CLOUDY    32  32 100 E3        29.90F
ARBOR VITAE    CLOUDY    34  32  93 CALM      29.90F
WOODRUFF       CLOUDY    34  32  93 CALM      29.90F
RHINELANDER    CLOUDY    34  29  82 E3        29.91F
EAGLE RIVER    MIX PCPN  32  31  94 N3        29.92R
LAND O LAKES   MIX PCPN  32  31  96 CALM      29.94F
PHILLIPS       CLOUDY    34  28  79 NE3       29.88F
TOMAHAWK       CLOUDY    32  30  92 CALM      29.90S
MEDFORD        DRIZZLE   36  30  79 S7        29.87F WCI  30
MERRILL        CLOUDY    36  28  74 S3        29.91F
$$

WIZ029-030-035-036-043>047-240500-
CENTRAL WISCONSIN

CITY           SKY/WX    TMP DP  RH WIND       PRES   REMARKS
WAUSAU         CLOUDY    36  29  75 SE5       29.89F WCI  32
MOSINEE        CLOUDY    36  32  87 S12G18    29.89F WCI  27
MARSHFIELD     CLOUDY    37  31  78 S10       29.86F WCI  30
STEVENS POINT  CLOUDY    35  30  82 S7        29.90F WCI  29
WAUPACA        CLOUDY    38  34  85 SE3       29.94F
WAUTOMA        NOT AVBL
WISC RAPIDS    CLOUDY    37  33  85 S6        29.93F WCI  32
CAMP DOUGLAS   MOCLDY    38  34  84 CALM      29.91F
$$

WIZ011>013-019>022-031-037>040-048>050-240500-
NORTHEAST WISCONSIN

CITY           SKY/WX    TMP DP  RH WIND       PRES   REMARKS
ANTIGO         CLOUDY    32  29  86 S5        29.92F WCI  28
SHAWANO        CLOUDY    38  29  69 CALM      29.96R
OCONTO         CLOUDY    36  30  80 S8        29.97R WCI  29
STURGEON BAY   CLOUDY    36  31  82 S16G24    29.94F WCI  26
GREEN BAY      CLOUDY    37  33  85 S6        29.96F WCI  32
MANITOWOC      CLOUDY    38  32  79 S13G23    29.95F WCI  30
APPLETON       CLOUDY    36  28  75 S6        29.94R WCI  31
CLINTONVILLE   CLOUDY    36  30  80 S6        29.94R WCI  31
OSHKOSH        CLOUDY    37  32  82 S6        29.93F WCI  32
$$

WIZ032>034-041-042-053>061-240500-
SOUTHWEST WISCONSIN

CITY           SKY/WX    TMP DP  RH WIND       PRES   REMARKS
LA CROSSE      CLOUDY    40  35  83 CALM      29.92F
SPARTA         MOCLDY    38  36  90 SE9       29.89F WCI  32
VIROQUA        CLOUDY    37  35  93 SE9       29.87F WCI  30
BOSCOBEL       PTCLDY    44  34  67 VRB7G20   29.90F
PRAIRIE DU CHI CLOUDY    41  32  70 SE13G18   29.87F
PLATTEVILLE    PTCLDY    41  33  75 SE12      29.93F
$$

WIZ056-057-062-063-064-067-068-240500-
SOUTH CENTRAL WISCONSIN

CITY           SKY/WX    TMP DP  RH WIND       PRES   REMARKS
REEDSBURG      CLOUDY    40  34  79 W8G25     29.92R WCI  35
BARABOO/DELLS  CLOUDY    41  32  70 W13G23    29.93R
LONE ROCK      MOCLDY    44  33  65 SE13      29.90F
MINERAL POINT  LGT RAIN  41  34  75 SE18      29.91F
MADISON        CLOUDY    42  32  67 S20       29.92F
MIDDLETON      CLOUDY    43  33  67 S13G21    29.92F
WATERTOWN      CLOUDY    41  35  79 S12       29.94F
MONROE         CLOUDY    41  32  70 SE17      29.94F
JANESVILLE     CLOUDY    45  32  61 S12       29.98S
$$

WIZ051-052-058>065-066-070>072-240500-
SOUTHEAST WISCONSIN

CITY           SKY/WX    TMP DP  RH WIND       PRES   REMARKS
MILWAUKEE      CLOUDY    45  34  65 S16       29.97F
WAUKESHA       CLOUDY    41  32  70 S13G18    29.98R
MILWAUKEE/TIMM CLOUDY    41  34  75 S10       29.98S
RACINE         CLOUDY    43  33  68 S15G24    30.00F
KENOSHA        CLOUDY    40  34  79 SE9       30.01F WCI  34
FOND DU LAC    LGT RAIN  39  32  76 SE9       29.90F WCI  33
SHEBOYGAN      CLOUDY    38  33  82 S9        29.94F WCI  31
WEST BEND      PTCLDY    37  36  93 S8        29.95F WCI  31
JUNEAU         MOCLDY    39  35  83 S13       29.94F WCI  32
$$

LSZ147-162-240500-
LAKE SUPERIOR

STATION/POSITION TIME  TEMP    WIND        PRES    WAVE
                       AIR SEA DIR/SP/G            HT/PER
                 (UTC) (F)     (DEG/KT/KT) (MB)    (FT/S)
DEVILS ISLAND    0400   33      80/  3/  3 1013.7F
PORT WING        0340   34     360/  2/  3 1012.9S
SAXON HARBOR     0330   34     180/  4/  6 1012.2F
$$

LMZ867-665-643>646-240500-
LAKE MICHIGAN

STATION/POSITION TIME  TEMP    WIND        PRES    WAVE
                       AIR SEA DIR/SP/G            HT/PER
                 (UTC) (F)     (DEG/KT/KT) (MB)    (FT/S)
CHAMBERS ISLAND  0340   36     170/  5/ 13 1015.2R
NORTHPORT PIER   0340   37     160/  3/  8 1016.3R
SISTER BAY       0206   34     160/ 19/ 23   N/A
KEWAUNEE LAKESHO 0354   37     170/ 15/ 17 1014.3F
SHEBOYGAN LAKESH 0400   38     170/ 20/ 22 1014.4S
PORT WASHINGTON  0342   38     170/ 11/ 23 1015.9R
MILWAUKEE LAKESH 0400   44     200/ 11/ 13   N/A
KENOSHA   LAKESH 0400   40     140/ 17/ 18 1016.3
$$

TC  - TEMPERATURE IN CELSIUS
VSB - VISIBILITY IN STATUTE MILES
WCI - WIND CHILL INDEX
HX  - HEAT INDEX





USA.gov is the U.S. government's official web portal to all federal, state and local government web resources and services.